SCOUT X-4 DEB, 732

Orbit data source: Space-Track

SCOUT X-4 DEB, 732 is space debris in LEO originally from a launch on Thu, 19 Dec 1963 UTC launched from the Air Force Western Test Range (AFWTR). Debris objects in space refer to the collection of defunct objects orbiting the Earth. Examples of debris include non-operational satellites, rocket bodies, and fragments generated from explosions, collisions, or faulty payload assembly.

Loading next visibility...
Identifier
732, 1963-053H
Orbit
LEO
Country
Flag of USUS
Related business
Manufacturer
Unknown
Mission
Spacecraft
Bus & Motor
Unknown
Mass
Unknown
Launch date (UTC)
1963-12-19 (62 years ago)
Launch vehicle
Unknown
Launch site
Air Force Western Test Range (AFWTR)
Object type
Payload
Rocket body
Debris
Shape & HBR
Unknown shape, 0.1 m
Radar Cross Section
Small (<0.1 m²)

Expand to show TLE details & history
Last TLE update: 1 day ago

TLE from 1 day ago
0 SCOUT X-4 DEB
1   732U 63053H   25306.30430081  .00007238  00000-0  21299-2 0  9999
2   732  78.5517 150.8630 0424337 279.0009  76.3362 14.02152274943292
Epoch: 2025-11-02T07:18Z
TLE epoch observation values (Epoch: 2025-11-02T07:18:11.589Z)
Latitude
Longitude
-0.50724°
Altitude
828.844 km
Speed
7.469 km/s
True Right ascension
10h 03m 27s
True Declination
0° 00' 00"
Sunlit
Object was in daylight at epoch
Visualization orbit readout
Latitude
Unknown
Longitude
Unknown
Altitude
Unknown
Speed
Unknown
Apparent Right ascension
Unknown
Apparent Declination
Unknown
Sunlit
N/A
Visualization observer readout
Local Sidereal Time
03:41:19
Azimuth
Unknown
Elevation
Unknown
Doppler factor
Unknown
Orbital elements
Apogee altitude
1,191.822 km
Perigee altitude
575.531 km
Semi-major axis
7,261.814 km
Eccentricity
0.04243
Inclination
78.5517°
RAAN
150.863°
Arg. of periapsis
279.0009°
True anomaly
81.11549°
Mean anomaly
76.3362°
Eccentric anomaly
78.72051°
Mean motion
3.50732 °/min
Orbital period
102.64 mins
BSTAR
0.0021299
Loading maneuver chart data...
Computing Atmospheric mass density...
Loading historical data...
Loading historical data...
Loading historical data...
Loading historical data...
Loading historical data...
Loading historical data...
Loading historical data...

Documentation

Showing up to 5 results
|